Total_Precipitation_Accumulation
0.98 0.93 0.89 0.79 0.83 0.96 1.20 1.41 1.76 1.50 1.01 0.74 0.72 0.65 0.63 0.57 0.55 0.57 0.51 0.44 0.39 0.34 0.37 0.34 0.32 0.46 0.74 1.01 1.26 1.41 1.62 1.93 2.06 2.25 2.24 2.33 2.38 2.30
0.81 0.90 0.88 0.84 0.93 1.02 1.12 1.19 1.47 1.67 1.34 0.76 0.80 0.86 0.84 0.70 0.56 0.43 0.34 0.41 0.43 0.36 0.31 0.31 0.28 0.31 0.35 0.44 0.57 0.72 0.92 1.18 1.54 1.93 2.08 2.06 2.04 2.28
0.52 0.69 0.72 0.74 0.88 0.98 1.09 1.29 1.40 1.52 1.37 0.72 0.59 0.51 0.43 0.34 0.26 0.27 0.25 0.20 0.18 0.26 0.28 0.30 0.33 0.34 0.33 0.36 0.42 0.50 0.62 0.68 0.79 1.15 1.66 1.98 2.29 2.15
0.33 0.49 0.49 0.69 0.83 0.87 1.01 1.04 1.03 0.98 1.14 0.72 0.41 0.37 0.30 0.26 0.25 0.32 0.31 0.36 0.39 0.40 0.42 0.35 0.39 0.44 0.44 0.45 0.47 0.50 0.54 0.64 0.73 0.75 0.92 1.41 1.64 1.82
0.30 0.39 0.39 0.54 0.59 0.56 0.63 0.67 0.73 0.87 1.01 1.10 0.70 0.53 0.40 0.36 0.40 0.43 0.41 0.37 0.36 0.51 0.59 0.58 0.57 0.60 0.62 0.57 0.57 0.66 0.77 0.80 0.84 0.89 1.04 1.09 1.21 1.48
0.31 0.34 0.42 0.48 0.47 0.53 0.65 0.71 0.79 0.96 0.98 0.95 0.87 0.70 0.54 0.45 0.57 0.54 0.45 0.45 0.47 0.44 0.56 0.59 0.64 0.62 0.62 0.62 0.63 0.63 0.67 0.76 0.81 0.93 1.11 1.25 1.29 1.24
0.59 0.62 0.57 0.55 0.53 0.56 0.58 0.60 0.89 0.98 1.14 1.30 1.16 1.07 0.93 0.74 0.71 0.71 0.80 0.64 0.51 0.41 0.34 0.41 0.55 0.61 0.65 0.76 0.75 0.72 0.84 1.03 1.08 1.12 1.18 1.38 1.66 1.60
1.03 0.84 0.79 0.83 0.72 0.67 0.65 0.66 0.84 1.17 1.37 1.43 1.34 1.06 0.69 0.66 0.62 0.74 0.93 1.02 0.83 0.38 0.39 0.47 0.74 0.85 0.86 0.89 0.98 0.89 0.97 1.06 1.28 1.47 1.54 1.54 1.51 1.78
1.40 1.31 1.16 0.97 1.09 1.14 1.25 1.24 1.30 1.45 1.41 1.23 1.07 0.94 0.83 0.75 1.01 1.20 1.14 1.20 0.97 0.61 0.64 0.70 0.74 0.74 0.78 0.73 0.92 0.94 0.98 0.93 0.88 0.91 1.08 1.31 1.57 1.75
1.02 1.05 1.13 1.18 1.16 1.10 1.21 1.60 1.46 1.22 1.16 1.19 1.25 1.15 1.16 1.23 1.49 1.71 1.64 1.54 1.26 0.87 0.71 0.86 0.47 0.52 0.53 0.54 0.75 0.73 0.74 0.79 0.80 0.79 0.82 0.90 1.09 1.32
1.08 0.96 1.02 0.98 1.05 1.11 1.29 1.44 1.26 1.16 1.29 1.40 1.49 1.59 1.55 1.41 1.36 1.62 1.75 1.62 1.37 0.75 0.58 0.79 0.57 0.52 0.52 0.47 0.52 0.63 0.57 0.63 0.76 0.81 0.85 0.92 0.94 0.97
1.17 0.95 1.17 0.83 0.94 1.14 0.92 0.84 0.89 0.79 0.97 1.00 1.04 1.08 1.00 0.96 1.25 1.20 1.57 2.26 1.68 1.35 0.66 1.12 0.85 0.74 1.07 0.46 0.42 0.58 0.57 0.57 0.57 0.54 0.54 0.60 0.69 0.72
0.66 0.69 0.74 1.09 1.07 0.96 0.94 0.89 0.99 1.01 1.18 1.03 0.97 0.95 0.91 0.86 0.89 1.09 1.51 2.51 2.73 2.03 1.05 2.05 1.78 0.86 1.28 0.77 0.51 0.56 0.48 0.55 0.65 0.63 0.61 0.59 0.58 0.64
0.57 0.66 0.94 1.21 0.75 0.67 0.75 0.92 1.09 1.05 0.78 0.76 0.94 0.99 0.94 0.93 1.01 1.14 1.28 1.53 1.78 2.09 1.37 1.80 2.52 1.34 1.64 1.23 0.79 0.69 0.66 0.64 0.75 0.73 0.68 0.82 1.03 1.07
0.19 0.40 0.46 0.41 0.48 0.62 0.83 0.84 0.78 0.70 0.96 1.30 1.35 1.33 1.29 1.38 1.43 1.35 1.25 1.21 1.28 1.32 1.44 1.42 1.78 1.62 1.79 1.68 1.21 0.81 0.97 0.94 1.00 1.09 0.95 0.81 0.76 0.77
0.21 0.19 0.11 0.11 0.17 0.23 0.32 0.32 0.28 0.43 0.84 1.16 1.28 1.25 1.36 1.40 1.32 1.36 1.55 1.31 1.42 1.21 1.03 0.96 1.11 1.35 1.39 1.02 1.27 1.11 0.93 1.35 1.29 1.36 1.36 0.96 0.84 0.73
0.13 0.10 0.14 0.13 0.11 0.10 0.10 0.18 0.30 0.52 0.77 0.75 0.95 1.02 1.17 1.31 1.34 1.42 1.77 1.69 1.54 1.15 0.94 0.78 0.73 0.76 0.86 0.98 1.09 0.97 1.13 1.07 1.28 1.67 1.55 1.24 1.13 0.95
0.17 0.12 0.11 0.16 0.26 0.36 0.48 0.55 0.58 0.67 0.67 0.87 1.00 1.10 1.33 1.42 1.57 1.69 1.75 1.61 1.42 1.10 1.01 0.89 0.87 0.93 0.96 0.86 1.07 1.29 1.16 1.20 1.46 1.65 1.69 1.19 1.15 1.20
0.33 0.23 0.23 0.23 0.25 0.30 0.42 0.67 0.89 0.96 1.28 1.56 1.57 1.49 1.50 1.64 1.83 1.87 1.62 1.41 1.17 0.90 0.73 0.70 1.00 1.37 1.56 0.94 0.73 1.12 1.62 1.49 1.28 1.38 1.39 1.10 1.14 1.22
0.46 0.41 0.42 0.44 0.49 0.59 0.67 0.87 1.02 1.08 1.21 1.36 1.59 1.66 1.84 2.07 1.96 1.67 1.33 1.19 1.11 0.98 0.81 0.66 0.75 1.09 1.77 1.54 1.43 1.29 1.31 1.65 1.48 1.46 1.23 1.08 1.23 1.21
0.56 0.62 0.69 0.74 0.79 0.92 1.05 1.24 1.44 1.68 1.87 1.94 1.76 1.90 1.93 2.11 1.79 1.35 1.17 0.99 1.14 1.22 1.07 0.63 0.60 0.91 1.33 1.56 1.54 1.04 1.24 1.31 1.36 1.79 1.56 1.41 1.12 0.97
0.59 0.75 0.83 1.01 1.10 1.23 1.40 1.65 1.88 1.92 1.94 1.89 1.97 1.99 1.81 1.72 1.59 1.24 1.11 1.28 1.06 0.93 0.90 0.79 0.90 1.07 1.25 1.49 1.12 0.84 0.91 0.95 0.95 0.96 1.20 1.63 1.88 1.99
0.67 0.85 0.99 1.14 1.19 1.25 1.42 1.64 1.92 1.91 1.85 1.98 1.92 1.73 1.57 1.42 1.01 1.07 1.13 1.11 1.17 1.27 1.06 1.03 0.98 1.00 1.05 1.11 1.07 1.01 0.83 0.88 0.76 0.72 1.09 1.04 1.13 1.34